Probability
0 0 0 0 0 0 0 0 0 0 0 1 2 6 9 10 11 19 28 31 26 22 22 25 30 35 45 53 52 46 39 37 37 37 34 31 30 30 30 29 26 24 21 18
0 0 0 0 0 0 0 0 0 0 0 1 3 7 12 13 14 19 25 27 26 24 24 27 33 39 45 51 51 48 44 41 39 38 35 33 32 31 31 30 27 24 21 20
0 0 0 0 0 0 0 0 0 0 0 0 3 9 15 16 14 15 18 20 22 23 23 26 35 42 46 48 48 48 50 49 44 41 38 36 35 33 32 31 27 23 21 20
0 0 0 0 0 0 0 0 0 0 0 0 2 8 15 17 12 11 13 15 17 19 20 24 33 42 46 46 46 48 52 53 48 42 40 39 38 35 33 33 29 24 21 21
0 0 0 0 0 0 0 0 0 0 0 0 1 5 12 16 15 14 16 16 17 19 22 26 34 40 42 43 45 49 54 54 48 41 40 42 41 39 38 36 33 28 24 23
0 0 0 0 0 0 0 0 0 0 0 0 0 3 10 15 17 18 20 20 21 22 24 28 35 41 41 41 44 50 56 56 50 43 42 44 44 42 41 38 34 31 29 26
0 0 0 0 0 0 0 0 0 0 0 0 0 3 11 17 19 20 22 24 25 24 24 26 32 39 44 45 46 51 57 57 51 45 43 45 46 42 39 37 34 32 32 30
0 0 0 0 0 0 0 0 0 0 0 0 1 5 12 17 20 20 20 23 24 23 23 23 25 34 42 45 46 50 54 56 52 46 44 46 46 41 38 37 35 35 34 33
0 0 0 0 0 0 0 0 0 0 0 1 2 6 11 15 15 15 15 16 18 20 21 22 25 29 34 40 44 48 52 55 53 48 45 45 44 41 38 38 38 37 35 33
0 0 0 0 0 0 0 0 0 0 0 1 2 5 10 12 10 9 9 10 15 18 20 24 27 28 30 36 42 48 53 55 53 50 47 44 43 42 39 39 39 37 35 33
0 0 0 0 0 0 0 0 0 0 0 0 1 3 8 11 9 7 7 11 16 19 21 26 29 30 31 36 43 51 55 55 53 51 50 48 45 43 42 40 37 35 34 33
0 0 0 0 0 0 0 0 0 0 0 0 0 3 8 13 13 10 9 13 16 19 24 28 32 34 34 37 43 48 50 51 51 52 52 50 48 45 42 38 35 35 34 32
0 0 0 0 0 0 0 0 0 0 0 0 0 4 10 14 15 14 13 13 14 18 25 30 34 37 37 37 39 40 41 44 48 51 53 51 48 47 42 38 36 36 35 32
0 0 0 0 0 1 0 0 0 0 0 0 0 4 10 13 12 13 15 14 13 17 24 30 33 33 33 33 34 35 37 40 44 48 52 51 48 45 43 41 39 38 34 32
1 1 1 0 0 0 0 0 0 0 0 0 2 6 12 14 15 16 15 13 13 15 20 28 30 27 27 30 32 33 38 41 43 45 47 47 45 44 44 43 41 37 32 28
2 3 2 1 0 0 1 1 0 0 0 1 4 10 17 20 21 21 17 13 13 14 19 27 30 28 27 30 32 35 38 41 42 41 41 41 42 43 44 42 39 34 30 26
3 4 4 3 1 1 2 2 1 1 2 3 6 12 18 23 24 22 19 17 16 18 22 28 32 33 32 34 36 36 38 40 40 38 37 38 40 41 40 38 34 32 29 27
3 4 6 5 3 3 4 3 3 3 4 5 8 12 15 19 21 20 20 20 21 24 27 30 33 35 37 38 38 37 37 37 37 36 36 37 38 36 35 34 32 31 30 29
4 6 7 7 5 3 3 3 2 3 5 7 9 10 11 13 16 17 18 19 22 27 29 29 31 34 38 39 39 38 37 35 35 34 34 35 33 31 31 33 33 33 32 31
4 5 7 6 4 3 3 3 2 2 6 9 10 10 11 12 14 16 16 18 23 27 29 28 29 32 36 38 39 38 37 35 32 30 30 31 30 29 31 34 36 35 34 33
1 2 4 4 3 2 3 3 3 5 9 12 13 13 14 14 16 17 18 20 24 27 26 26 28 32 35 38 38 37 36 34 30 28 30 32 32 31 33 37 38 35 33 32
1 2 3 3 2 2 4 5 6 9 12 13 14 14 14 15 15 16 18 20 22 23 23 23 26 32 35 37 37 35 34 34 32 31 33 35 35 33 33 36 35 33 32 30
3 4 4 4 3 3 4 5 6 9 11 11 12 12 12 11 11 11 14 17 17 18 20 21 22 26 30 33 35 35 34 32 33 34 36 37 36 33 32 33 31 30 30 29
2 3 4 4 4 3 4 3 4 5 7 8 9 8 8 7 6 6 9 13 15 15 16 18 18 20 23 27 31 32 31 30 31 32 33 34 34 32 31 29 27 26 26 25
0 1 3 3 3 3 3 3 2 3 4 5 6 5 4 4 4 5 8 12 14 14 14 15 17 18 20 22 25 27 28 28 28 26 26 27 27 26 26 24 20 18 17 17
0 1 2 3 3 2 2 2 2 3 4 4 4 3 3 3 4 5 9 14 14 13 13 14 16 18 18 19 21 24 26 27 25 22 20 21 22 22 21 19 15 11 10 11
Wind_Speed
13 13 13 14 15 13 13 13 11 8 7 8 7 6 5 6 6 6 8 8 7 6 7 9 9 10 9 8 7 6 5 4 3 3 2 2 2 2 2 2 3 3 2 2
12 16 15 12 10 12 14 14 10 6 6 7 7 7 5 5 5 5 6 8 8 7 7 8 9 9 9 8 7 6 5 5 4 2 2 2 2 2 2 2 3 2 1 1
15 9 8 9 11 12 13 12 11 8 8 9 8 8 7 7 6 6 6 6 7 8 9 9 9 8 9 8 7 6 4 5 4 3 2 2 1 1 2 3 2 1 2 2
12 10 9 11 12 11 11 9 11 10 10 8 11 9 8 9 9 9 8 6 7 7 8 9 10 9 9 9 8 6 5 4 3 3 3 3 3 2 2 2 2 2 2 2
10 10 11 12 10 9 9 9 11 12 12 11 11 10 7 9 9 9 8 8 7 8 9 9 9 9 8 8 8 7 6 5 4 3 3 3 2 2 2 2 2 2 2 2
11 10 10 9 8 8 8 10 11 12 11 12 10 9 7 5 7 7 8 7 7 6 6 7 9 9 7 7 7 7 7 6 5 4 3 3 2 2 2 2 2 2 2 2
12 12 10 8 9 8 8 9 7 9 9 10 9 8 3 3 5 5 7 7 6 5 4 5 7 9 8 8 7 7 7 6 5 5 4 3 3 3 3 3 3 3 2 2
10 10 9 8 8 9 9 11 10 9 9 8 8 6 3 4 4 5 6 6 6 5 4 4 5 6 7 7 6 6 7 6 5 5 4 4 3 3 2 2 2 2 1 2
7 7 5 6 7 9 10 10 12 12 13 10 7 4 4 5 5 5 4 4 5 4 4 4 3 3 6 6 5 5 6 6 6 5 4 3 3 2 2 2 2 1 1 2
8 9 9 6 7 11 11 10 8 9 9 10 7 6 3 6 6 5 4 2 3 3 3 3 4 3 4 4 5 5 5 6 6 5 4 4 3 3 2 2 1 1 1 1
9 9 10 9 9 9 9 10 9 9 9 8 7 2 1 2 4 4 3 3 3 2 1 3 3 3 3 4 5 4 5 5 5 5 4 3 4 3 3 2 1 1 1 1
5 7 10 11 8 8 9 8 7 7 8 9 7 2 2 4 4 4 1 2 2 2 3 4 4 3 2 2 3 4 4 4 4 4 4 3 3 3 3 2 2 2 1 1
5 5 8 8 6 5 8 9 8 7 7 8 8 1 2 4 4 3 2 3 2 2 3 4 5 4 3 2 1 2 3 4 4 4 4 4 3 3 3 2 2 2 2 2
5 7 9 10 8 5 8 9 9 9 8 8 6 3 1 2 2 2 2 2 2 3 4 5 5 4 4 3 2 1 1 2 3 3 3 3 3 3 3 3 2 2 2 2
4 8 10 12 10 9 10 9 10 11 10 9 5 3 0 1 1 2 2 2 2 3 3 4 4 3 3 3 2 1 1 1 1 1 2 3 3 3 3 3 3 2 2 2
3 7 10 11 12 11 10 9 11 10 10 7 4 2 3 2 3 3 3 1 1 2 2 2 2 2 2 2 2 2 2 1 1 1 2 2 3 3 3 3 3 3 2 2
5 6 9 10 10 11 8 7 7 6 6 5 4 2 2 2 3 3 3 4 4 3 5 5 4 2 3 1 1 1 0 0 1 1 2 2 3 4 3 3 3 3 2 2
6 6 6 9 9 10 4 5 4 3 3 3 3 2 2 3 3 4 6 5 5 5 4 4 4 3 2 1 1 1 0 1 1 1 1 1 2 3 3 3 3 2 2 2
5 5 7 7 8 6 4 4 4 2 3 3 3 2 2 2 2 4 5 4 4 4 4 3 3 3 2 1 2 2 1 1 1 1 1 2 2 2 3 3 3 3 3 2
4 4 6 7 8 6 3 4 5 2 2 6 5 4 4 3 2 2 5 4 3 3 3 2 3 3 1 1 1 1 2 1 1 1 1 2 2 2 3 3 3 3 2 3
4 6 7 8 7 4 5 5 4 3 3 7 7 6 5 3 3 3 4 4 3 3 3 2 2 2 1 1 1 1 2 2 2 1 1 1 2 2 3 3 2 2 3 3
4 4 5 5 5 3 7 6 5 4 5 5 6 6 5 4 4 3 3 3 3 3 3 3 2 2 1 1 1 1 2 2 2 2 2 1 1 2 2 2 2 2 2 2
2 3 2 2 1 2 3 4 4 3 4 5 5 6 5 4 4 5 5 5 5 5 5 4 4 3 3 2 1 2 1 1 2 1 1 0 0 0 0 1 2 2 1 1
1 2 2 1 2 3 3 4 4 5 5 5 5 6 5 5 5 5 5 4 5 6 5 4 4 4 4 3 2 1 1 1 1 1 1 1 1 1 1 1 1 1 1 1
4 2 2 2 3 4 4 4 3 4 5 5 6 5 5 5 5 5 4 4 4 4 5 4 3 3 4 3 2 2 1 0 1 1 1 2 2 2 1 1 1 1 2 1
4 3 3 3 3 3 3 5 4 3 3 4 5 6 6 5 5 5 5 4 4 4 4 4 4 4 3 3 3 2 2 1 1 1 1 1 1 2 2 2 2 5 3 4
Wind_Direction
218 228 234 231 229 247 260 258 252 243 225 222 222 216 210 205 189 171 158 154 159 157 149 145 145 142 138 133 136 140 143 138 134 138 154 154 137 124 117 120 114 124 129 119
227 230 239 247 248 250 258 263 263 250 236 239 231 219 204 200 190 174 165 158 158 151 147 145 149 147 145 143 145 146 153 148 145 143 157 156 141 142 142 118 111 118 105 112
235 240 231 245 254 254 256 262 269 260 242 240 247 226 194 187 200 179 175 164 158 160 153 155 151 149 148 147 149 153 152 147 155 152 154 141 130 162 138 124 133 149 143 115
241 246 242 238 243 252 258 262 273 268 259 251 244 245 206 191 190 184 180 167 162 164 163 160 158 157 156 155 152 144 146 145 151 153 167 171 171 179 163 156 155 165 150 137
243 241 243 245 244 252 267 274 273 272 267 262 249 254 221 193 193 182 173 164 163 161 165 160 160 161 160 157 155 153 149 152 156 164 183 191 193 183 153 137 148 155 152 152
255 251 252 255 257 260 269 270 263 263 262 256 251 250 241 206 190 183 167 155 152 155 157 163 161 156 155 154 153 152 150 154 162 174 181 185 207 186 161 159 172 178 168 165
247 241 238 247 255 246 253 258 258 253 250 258 252 242 219 166 156 165 151 141 136 141 148 160 162 158 161 163 162 157 154 161 170 182 185 184 204 202 193 193 200 194 178 166
250 242 224 218 242 254 248 253 260 266 268 266 266 238 169 121 118 120 121 130 129 137 159 154 163 160 162 165 163 159 157 163 172 183 190 188 195 205 210 212 227 214 176 157
281 273 261 243 241 259 256 256 267 270 273 268 249 231 160 132 129 122 122 135 133 138 153 152 154 148 154 156 161 165 160 165 173 181 183 181 184 207 205 189 225 208 176 181
281 280 257 249 252 248 256 262 271 272 275 277 256 246 214 167 160 141 140 140 134 144 135 119 128 129 133 150 159 163 157 161 170 176 183 180 182 194 196 196 208 183 168 143
279 282 274 258 253 259 256 254 262 276 279 281 275 271 56 113 132 131 149 146 132 121 109 103 101 102 131 163 161 158 159 162 170 173 175 173 175 182 184 186 179 160 129 145
282 283 281 268 267 274 262 263 263 268 278 283 284 286 42 84 82 81 107 104 113 117 108 100 97 89 91 128 142 144 151 165 165 164 161 164 165 167 177 182 165 150 151 167
307 278 273 261 242 261 270 269 267 264 269 270 273 230 60 66 72 64 65 70 41 59 87 86 84 76 66 55 81 139 159 159 164 165 164 164 171 171 180 181 168 165 173 180
259 263 271 274 279 271 271 274 275 266 259 265 268 244 189 86 44 52 82 81 67 54 72 73 62 53 49 38 23 52 159 152 158 159 162 160 175 178 179 177 168 172 170 173
272 266 273 280 277 260 259 266 267 265 264 267 278 273 98 99 61 49 67 85 95 82 48 70 68 45 41 20 10 35 26 76 102 140 169 171 174 170 171 166 160 163 170 188
249 280 282 279 276 269 259 261 267 269 274 274 287 305 21 32 47 45 33 42 67 61 72 82 96 79 44 10 351 25 26 31 81 206 211 181 183 175 173 164 161 164 175 191
262 269 277 273 269 266 261 266 268 275 290 295 298 338 18 37 35 25 27 26 52 45 46 37 38 66 82 28 337 336 354 280 248 220 207 201 180 166 167 176 168 169 175 189
262 271 270 273 272 261 279 310 307 321 326 350 6 55 34 19 30 52 51 32 26 33 43 43 24 20 30 13 7 347 304 237 229 219 212 199 177 166 168 179 179 176 182 196
249 256 266 270 265 259 280 306 307 303 306 1 5 16 17 17 39 70 59 41 37 36 35 30 359 350 3 353 2 341 327 300 279 259 217 214 203 189 186 190 193 192 196 202
229 236 254 266 272 270 304 352 346 309 273 11 6 7 10 0 325 28 30 19 34 38 23 14 349 337 338 359 351 310 299 292 291 292 264 245 222 211 198 196 203 201 198 202
224 236 248 261 264 275 353 349 320 288 21 7 6 6 3 5 6 10 5 359 5 16 3 349 335 325 330 337 315 287 291 289 295 287 279 276 246 223 207 199 206 198 199 199
257 254 257 267 266 283 7 3 8 23 18 10 2 5 6 3 15 10 0 356 348 352 350 340 336 335 329 309 276 268 274 290 294 274 262 261 258 249 223 181 192 201 205 193
306 322 316 338 356 35 30 38 40 14 7 3 0 355 348 347 355 353 350 353 356 358 351 349 344 339 330 314 281 267 274 287 293 287 281 278 277 279 238 180 186 194 199 205
290 355 315 310 340 351 20 41 29 17 6 353 357 349 343 349 351 339 340 349 356 356 348 348 342 333 322 322 317 312 300 312 302 268 255 216 186 182 179 179 179 177 207 213
324 323 289 261 300 321 345 354 0 9 359 355 354 347 351 348 338 330 333 346 353 347 342 342 342 328 320 327 336 345 342 278 263 260 245 237 193 168 140 91 40 98 41 38
313 319 302 298 320 305 315 329 323 335 346 346 340 342 345 345 340 337 339 347 347 342 339 340 341 335 327 331 346 354 349 315 258 242 247 245 201 157 142 124 81 53 76 85